Location: *
(49.4547°N, 7.9131°E)
Time: 02:52:34
(UTC+00:00)

Cosmos 1140 Rocket - Pass Details

Date: 22 September 2019
Orbit: 745 x 767 km, 74.1° (Epoch: 15 October)

Event Time Altitude Azimuth Distance (km) Brightness Sun altitude
Rises 19:17:35 0° 332° (NNW) 3,222 7.6 -18.3°
Reaches altitude 10° 19:20:01 10° 327° (NNW) 2,289 6.8 -18.7°
Maximum altitude 19:24:59 48° 254° (WSW) 976 4.3 -19.4°
Enters shadow 19:29:46 11° 182° (S) 2,214 5.6 -20.1°
